Temp
-10 -10 -10 -10 -9 -9 -9 -9 -8 -8 -8 -9 -9 -8 -8 -8 -8 -8 -8 -8 -8 -8 -8 -8 -8 -8 -8 -8 -8 -8 -8 -8 -8 -8 -8 -9 -9 -9 -9 -10 -10 -10 -10 -10 -10 -11 -11
-10 -10 -10 -9 -9 -9 -9 -9 -9 -8 -9 -9 -9 -9 -8 -8 -8 -8 -8 -8 -8 -8 -8 -8 -8 -8 -8 -8 -8 -8 -8 -8 -8 -8 -9 -9 -9 -9 -10 -10 -10 -10 -10 -11 -11 -11 -11
-10 -10 -9 -9 -9 -9 -9 -9 -9 -9 -9 -9 -9 -9 -9 -9 -9 -9 -8 -8 -8 -8 -8 -8 -8 -8 -8 -8 -8 -8 -8 -8 -8 -8 -9 -9 -9 -9 -10 -10 -10 -10 -11 -12 -11 -11 -11
-10 -10 -10 -9 -9 -9 -9 -9 -9 -9 -9 -9 -9 -9 -9 -9 -9 -9 -8 -8 -8 -8 -8 -8 -8 -8 -8 -8 -8 -8 -8 -8 -8 -9 -9 -9 -9 -9 -10 -10 -11 -11 -11 -11 -11 -11 -11
-10 -10 -10 -9 -9 -9 -9 -9 -9 -9 -9 -9 -9 -9 -9 -9 -9 -9 -8 -8 -8 -8 -8 -8 -8 -8 -8 -8 -8 -8 -8 -9 -9 -9 -9 -9 -10 -10 -10 -10 -10 -10 -11 -11 -11 -11 -12
-10 -10 -10 -10 -9 -9 -9 -9 -9 -9 -9 -9 -9 -9 -9 -9 -9 -9 -8 -8 -8 -8 -8 -8 -8 -8 -8 -8 -8 -9 -9 -9 -9 -9 -9 -9 -10 -10 -10 -11 -11 -11 -12 -12 -12 -12 -11
-10 -10 -10 -10 -10 -9 -10 -10 -10 -10 -10 -9 -9 -9 -9 -9 -9 -9 -9 -8 -8 -8 -9 -9 -9 -8 -9 -9 -9 -9 -9 -9 -9 -9 -10 -10 -10 -10 -10 -10 -11 -11 -12 -12 -12 -12 -12
-10 -10 -10 -10 -10 -10 -10 -10 -10 -10 -10 -9 -9 -9 -9 -9 -9 -9 -9 -9 -8 -9 -9 -9 -9 -9 -9 -9 -9 -9 -9 -9 -9 -9 -9 -10 -10 -10 -11 -11 -11 -11 -12 -12 -13 -13 -13
-10 -10 -10 -10 -10 -10 -10 -10 -10 -10 -10 -10 -9 -9 -9 -9 -9 -9 -9 -9 -9 -8 -9 -9 -9 -9 -9 -9 -9 -9 -9 -9 -9 -9 -10 -10 -10 -11 -11 -11 -11 -12 -12 -13 -13 -13 -13
-10 -10 -10 -10 -10 -10 -10 -10 -10 -10 -10 -10 -10 -10 -9 -9 -9 -9 -9 -9 -9 -9 -9 -9 -9 -9 -9 -9 -9 -9 -9 -10 -10 -10 -10 -10 -11 -11 -11 -11 -11 -12 -12 -13 -13 -13 -13
-10 -10 -10 -10 -10 -10 -10 -10 -10 -10 -10 -10 -10 -9 -9 -9 -9 -9 -9 -9 -9 -9 -9 -9 -9 -9 -9 -9 -9 -9 -10 -10 -10 -10 -10 -11 -11 -11 -11 -12 -12 -12 -12 -13 -14 -14 -14
-10 -10 -10 -10 -10 -10 -10 -9 -9 -9 -9 -9 -10 -9 -9 -9 -9 -9 -9 -9 -9 -9 -9 -9 -9 -9 -9 -10 -10 -10 -10 -10 -10 -10 -11 -11 -11 -12 -12 -12 -12 -12 -13 -13 -13 -14 -14
-11 -11 -10 -10 -10 -10 -10 -10 -9 -9 -9 -9 -9 -9 -10 -10 -10 -10 -10 -9 -10 -9 -10 -10 -10 -10 -10 -10 -10 -10 -10 -10 -10 -11 -11 -12 -12 -12 -12 -12 -12 -13 -13 -13 -13 -14 -14
-11 -11 -11 -11 -10 -10 -10 -10 -10 -10 -9 -9 -9 -9 -9 -10 -10 -10 -10 -10 -10 -10 -10 -10 -10 -10 -10 -10 -10 -10 -10 -10 -11 -11 -11 -11 -12 -12 -12 -12 -12 -13 -13 -14 -14 -15 -14
-11 -11 -11 -11 -11 -11 -10 -10 -10 -10 -9 -9 -9 -9 -9 -9 -10 -10 -10 -10 -10 -10 -10 -10 -10 -10 -10 -10 -10 -11 -11 -11 -11 -12 -12 -12 -12 -12 -12 -13 -13 -13 -14 -14 -15 -15 -14
-11 -11 -11 -11 -11 -11 -11 -10 -10 -10 -10 -10 -10 -9 -9 -10 -10 -10 -10 -10 -10 -10 -10 -10 -10 -10 -10 -11 -11 -11 -11 -11 -12 -12 -12 -12 -12 -13 -13 -13 -13 -14 -15 -15 -16 -15 -15
-11 -11 -11 -11 -11 -11 -11 -11 -10 -10 -10 -10 -10 -10 -10 -10 -10 -10 -10 -10 -10 -10 -10 -11 -11 -11 -11 -11 -11 -11 -12 -12 -12 -12 -12 -12 -12 -13 -13 -13 -14 -15 -15 -16 -16 -16 -16
-11 -11 -11 -11 -11 -11 -11 -11 -11 -11 -11 -10 -10 -11 -10 -10 -10 -10 -11 -11 -11 -11 -11 -11 -11 -11 -11 -11 -12 -12 -12 -12 -13 -13 -12 -12 -12 -12 -14 -14 -14 -15 -15 -16 -16 -16 -16
-11 -11 -11 -11 -11 -11 -11 -11 -11 -11 -11 -11 -11 -11 -11 -11 -11 -11 -11 -11 -11 -11 -11 -11 -11 -11 -12 -12 -12 -12 -13 -13 -13 -13 -13 -13 -13 -12 -13 -13 -14 -15 -16 -16 -16 -16 -16
-12 -12 -11 -11 -11 -11 -11 -11 -11 -11 -11 -11 -11 -11 -11 -11 -11 -11 -11 -12 -11 -12 -12 -12 -12 -12 -12 -13 -13 -13 -13 -13 -14 -14 -14 -14 -14 -14 -15 -15 -15 -15 -16 -17 -16 -16 -16
-12 -12 -12 -12 -12 -12 -12 -12 -12 -11 -11 -11 -12 -12 -12 -11 -12 -12 -12 -12 -12 -12 -12 -13 -13 -13 -13 -13 -14 -14 -14 -14 -14 -14 -14 -14 -14 -14 -14 -15 -15 -15 -16 -18 -18 -18 -17
-13 -13 -13 -13 -13 -12 -12 -12 -12 -12 -12 -12 -12 -12 -12 -12 -12 -12 -13 -13 -12 -13 -13 -13 -13 -13 -13 -14 -14 -14 -14 -14 -14 -14 -15 -14 -14 -14 -14 -15 -15 -15 -16 -16 -17 -18 -18
-13 -13 -13 -13 -14 -13 -13 -13 -13 -13 -13 -13 -13 -13 -13 -13 -13 -13 -13 -13 -13 -13 -13 -14 -14 -14 -14 -14 -14 -14 -15 -15 -15 -15 -15 -15 -15 -15 -14 -15 -15 -15 -16 -17 -17 -18 -18
-13 -13 -13 -13 -13 -13 -13 -13 -13 -13 -13 -13 -14 -13 -13 -13 -13 -14 -14 -14 -14 -14 -14 -14 -14 -14 -14 -14 -14 -14 -15 -15 -15 -15 -15 -15 -16 -16 -15 -16 -15 -16 -17 -17 -17 -17 -18
-13 -13 -13 -13 -13 -13 -13 -13 -13 -13 -13 -14 -14 -14 -13 -13 -13 -14 -15 -14 -14 -14 -15 -15 -15 -15 -15 -15 -15 -14 -15 -15 -15 -15 -16 -16 -16 -16 -16 -17 -16 -16 -17 -17 -17 -17 -18
-14 -14 -14 -14 -14 -13 -13 -13 -13 -13 -13 -13 -14 -15 -14 -13 -14 -14 -15 -15 -15 -15 -15 -15 -15 -15 -15 -15 -15 -15 -15 -15 -15 -15 -16 -16 -16 -17 -17 -17 -17 -17 -18 -18 -18 -17 -18
-14 -14 -14 -14 -14 -14 -13 -13 -14 -13 -14 -14 -15 -15 -15 -13 -14 -14 -15 -14 -15 -15 -15 -15 -15 -15 -15 -15 -15 -16 -16 -16 -16 -16 -17 -17 -17 -17 -18 -18 -17 -18 -18 -18 -18 -19 -18
-15 -15 -15 -14 -14 -14 -14 -14 -14 -14 -14 -14 -15 -15 -14 -14 -14 -14 -15 -15 -15 -15 -16 -15 -15 -14 -15 -16 -16 -16 -16 -16 -16 -17 -17 -17 -18 -18 -18 -18 -18 -18 -19 -19 -19 -18 -19
-15 -15 -15 -15 -15 -15 -15 -15 -15 -15 -15 -15 -15 -16 -15 -15 -14 -15 -15 -15 -15 -15 -16 -16 -16 -16 -16 -16 -16 -17 -17 -17 -17 -17 -17 -18 -18 -18 -18 -18 -19 -19 -19 -20 -20 -19 -20
Height
5869 5870 5870 5871 5871 5871 5871 5871 5872 5872 5873 5872 5872 5872 5872 5871 5870 5869 5868 5867 5866 5864 5863 5862 5861 5859 5858 5856 5854 5852 5850 5847 5844 5841 5838 5835 5832 5829 5825 5821 5817 5812 5810 5806 5802 5797 5794
5872 5872 5873 5873 5873 5874 5874 5874 5874 5874 5875 5874 5875 5875 5874 5873 5872 5871 5870 5869 5868 5866 5865 5864 5862 5861 5860 5858 5855 5853 5850 5847 5844 5841 5839 5836 5832 5828 5823 5819 5816 5813 5808 5804 5800 5795 5791
5874 5875 5875 5875 5876 5876 5876 5876 5877 5877 5877 5876 5877 5876 5876 5875 5874 5873 5872 5871 5870 5868 5867 5866 5864 5863 5861 5860 5857 5854 5851 5848 5845 5842 5839 5835 5831 5827 5822 5818 5814 5810 5809 5804 5799 5794 5790
5876 5877 5877 5877 5878 5878 5878 5878 5878 5878 5879 5879 5878 5878 5878 5878 5876 5875 5874 5873 5871 5870 5869 5868 5866 5865 5863 5861 5858 5855 5852 5849 5846 5842 5839 5834 5830 5825 5821 5817 5813 5811 5807 5802 5796 5793 5789
5878 5878 5878 5878 5879 5879 5879 5879 5880 5880 5880 5880 5880 5880 5879 5879 5878 5877 5876 5874 5873 5872 5870 5869 5867 5865 5864 5861 5858 5856 5853 5849 5846 5842 5838 5834 5830 5825 5821 5817 5812 5807 5803 5799 5794 5790 5786
5879 5879 5880 5880 5880 5880 5880 5880 5880 5880 5881 5881 5881 5881 5880 5880 5879 5878 5876 5875 5874 5873 5871 5869 5868 5867 5864 5861 5858 5855 5852 5849 5845 5841 5836 5834 5829 5824 5819 5814 5810 5806 5801 5795 5792 5788 5783
5880 5881 5881 5882 5882 5881 5881 5881 5881 5881 5881 5881 5881 5881 5881 5880 5879 5878 5877 5876 5876 5874 5871 5870 5867 5865 5862 5860 5857 5853 5850 5847 5843 5841 5837 5832 5828 5823 5817 5813 5808 5803 5798 5794 5788 5785 5781
5880 5880 5881 5881 5882 5882 5882 5882 5882 5882 5882 5882 5881 5881 5880 5880 5879 5878 5877 5875 5873 5873 5870 5868 5866 5864 5861 5858 5855 5852 5850 5847 5843 5838 5834 5830 5825 5820 5815 5810 5806 5801 5795 5792 5786 5781 5778
5879 5880 5880 5881 5881 5881 5881 5882 5882 5882 5881 5882 5881 5881 5880 5879 5878 5878 5876 5875 5873 5871 5870 5867 5864 5862 5860 5857 5854 5851 5847 5843 5840 5836 5831 5827 5823 5817 5813 5808 5803 5798 5793 5788 5785 5779 5774
5877 5878 5879 5879 5880 5880 5880 5881 5880 5880 5881 5881 5881 5880 5879 5878 5879 5876 5875 5873 5872 5870 5868 5867 5863 5861 5858 5855 5852 5848 5844 5842 5838 5833 5828 5824 5819 5815 5810 5805 5800 5794 5789 5784 5780 5777 5771
5875 5876 5877 5878 5878 5879 5879 5879 5879 5878 5879 5879 5879 5878 5877 5876 5875 5874 5873 5870 5869 5868 5867 5865 5862 5858 5855 5853 5849 5845 5842 5838 5834 5830 5827 5822 5816 5811 5807 5802 5796 5792 5783 5779 5775 5772 5769
5872 5874 5875 5875 5876 5877 5876 5876 5876 5876 5876 5876 5876 5875 5874 5874 5873 5871 5869 5868 5867 5867 5863 5861 5858 5856 5852 5849 5846 5842 5839 5835 5831 5827 5822 5818 5813 5808 5803 5797 5792 5786 5780 5775 5768 5766 5765
5869 5871 5871 5872 5873 5874 5874 5874 5873 5873 5873 5873 5872 5871 5871 5870 5869 5868 5867 5865 5865 5862 5860 5858 5855 5851 5848 5845 5842 5839 5835 5831 5828 5824 5819 5814 5810 5804 5799 5793 5787 5781 5775 5770 5765 5759 5758
5865 5866 5867 5868 5869 5870 5870 5870 5870 5869 5869 5869 5868 5868 5867 5866 5865 5864 5863 5862 5860 5857 5855 5853 5850 5847 5844 5841 5838 5834 5831 5827 5822 5817 5813 5809 5804 5797 5792 5787 5781 5775 5770 5763 5756 5753 5751
5859 5861 5863 5864 5865 5865 5866 5865 5865 5865 5865 5864 5864 5863 5862 5862 5861 5860 5860 5857 5856 5853 5851 5848 5845 5842 5839 5836 5833 5830 5826 5822 5817 5814 5809 5802 5799 5792 5786 5779 5774 5770 5763 5757 5753 5748 5743
5852 5854 5857 5859 5860 5861 5861 5861 5861 5861 5861 5860 5859 5858 5858 5857 5856 5855 5854 5853 5850 5847 5845 5842 5839 5837 5833 5830 5827 5823 5819 5816 5812 5807 5802 5797 5792 5787 5781 5773 5768 5764 5757 5750 5746 5740 5736
5847 5848 5850 5852 5853 5855 5856 5856 5855 5856 5856 5855 5854 5853 5852 5852 5851 5850 5848 5847 5844 5842 5840 5838 5834 5831 5828 5825 5822 5818 5814 5810 5806 5801 5796 5790 5786 5781 5773 5766 5760 5757 5750 5744 5740 5735 5730
5840 5841 5843 5845 5846 5847 5849 5849 5849 5849 5849 5849 5848 5848 5847 5846 5846 5844 5842 5841 5839 5837 5835 5832 5829 5825 5822 5818 5816 5812 5808 5803 5799 5795 5789 5783 5778 5771 5767 5758 5751 5748 5742 5736 5731 5728 5722
5831 5833 5835 5837 5838 5839 5841 5842 5842 5842 5842 5841 5842 5841 5841 5840 5839 5837 5836 5834 5832 5830 5828 5825 5822 5818 5815 5812 5809 5805 5801 5797 5792 5787 5782 5775 5770 5763 5760 5752 5744 5740 5735 5728 5723 5720 5717
5822 5824 5826 5827 5828 5831 5832 5833 5834 5834 5834 5834 5834 5834 5834 5832 5832 5831 5829 5827 5825 5823 5821 5818 5814 5811 5808 5805 5800 5797 5792 5789 5784 5780 5775 5768 5764 5757 5751 5744 5736 5734 5727 5720 5715 5712 5707
5812 5814 5816 5817 5819 5821 5822 5822 5824 5824 5824 5825 5825 5825 5824 5823 5822 5821 5819 5819 5816 5815 5812 5809 5807 5803 5800 5797 5791 5789 5785 5781 5777 5771 5766 5759 5756 5749 5744 5736 5729 5725 5721 5711 5705 5702 5694
5800 5803 5804 5806 5806 5810 5812 5813 5813 5814 5815 5815 5815 5815 5815 5815 5813 5812 5810 5809 5806 5804 5803 5801 5798 5795 5791 5788 5783 5780 5775 5770 5766 5762 5756 5751 5746 5741 5736 5730 5721 5719 5711 5705 5698 5690 5684
5788 5789 5790 5793 5796 5798 5800 5801 5802 5803 5803 5803 5804 5804 5803 5804 5803 5802 5801 5798 5797 5795 5794 5791 5788 5786 5783 5779 5774 5771 5766 5762 5756 5751 5745 5740 5734 5729 5725 5720 5712 5712 5704 5698 5691 5682 5677
5774 5778 5779 5781 5785 5786 5788 5789 5791 5791 5791 5791 5792 5791 5792 5793 5792 5791 5790 5790 5788 5785 5783 5781 5778 5775 5772 5767 5764 5760 5756 5751 5747 5742 5735 5728 5723 5716 5712 5707 5704 5698 5693 5687 5680 5673 5665
5761 5764 5767 5769 5772 5774 5775 5777 5778 5779 5779 5780 5779 5779 5779 5780 5781 5782 5779 5778 5776 5773 5772 5768 5768 5764 5759 5755 5751 5747 5744 5741 5738 5733 5725 5717 5710 5702 5696 5693 5693 5692 5682 5675 5668 5664 5655
5747 5750 5752 5755 5758 5761 5763 5764 5766 5767 5768 5767 5766 5766 5766 5767 5770 5768 5767 5766 5764 5761 5760 5758 5755 5751 5746 5743 5738 5733 5732 5727 5720 5718 5715 5707 5700 5694 5685 5679 5676 5675 5669 5662 5655 5652 5646
5733 5735 5738 5740 5743 5745 5748 5750 5751 5753 5753 5753 5753 5752 5752 5753 5757 5756 5755 5753 5750 5749 5747 5745 5743 5738 5734 5730 5724 5720 5718 5713 5708 5705 5700 5693 5687 5682 5674 5664 5667 5661 5656 5648 5642 5638 5628
5717 5721 5724 5726 5728 5730 5731 5733 5735 5736 5737 5738 5738 5736 5737 5739 5742 5742 5742 5738 5735 5735 5732 5730 5726 5726 5720 5714 5709 5706 5701 5699 5695 5693 5687 5681 5673 5670 5662 5654 5649 5647 5640 5633 5627 5619 5613
5701 5703 5707 5710 5713 5715 5717 5719 5719 5721 5721 5722 5724 5722 5720 5720 5729 5729 5728 5725 5722 5718 5718 5715 5714 5711 5702 5698 5694 5687 5683 5681 5682 5678 5674 5667 5662 5654 5649 5643 5635 5629 5623 5617 5610 5603 5597
Wind_Speed
14 14 15 16 16 17 18 18 17 16 15 15 17 19 19 19 20 20 21 23 22 20 19 18 18 19 20 20 19 20 21 21 23 23 22 22 23 25 25 23 25 26 24 24 24 22 20
13 13 14 15 16 16 17 16 15 13 12 14 14 15 16 17 18 18 20 22 23 23 23 21 21 20 19 20 20 21 22 22 22 22 23 23 26 28 29 27 25 26 27 24 24 23 22
13 13 13 13 13 14 13 12 12 12 12 11 12 13 13 14 16 17 18 19 21 22 23 22 23 22 22 22 22 22 22 23 23 24 25 26 28 30 29 27 28 28 25 21 22 24 22
12 12 11 11 11 10 10 11 11 10 10 12 12 12 10 13 15 16 17 19 19 20 20 21 22 22 21 22 22 22 23 23 24 24 25 27 29 29 30 29 26 26 26 25 27 26 25
10 10 10 9 8 8 8 8 9 10 9 9 9 10 10 13 15 15 16 17 17 17 17 18 19 20 20 19 23 23 23 25 25 26 26 28 28 29 29 29 31 32 30 28 26 27 23
8 8 8 9 8 7 6 6 6 5 5 6 7 8 8 11 13 13 13 14 14 16 15 16 17 18 18 20 21 23 26 26 26 27 29 29 30 31 32 32 32 32 30 30 27 27 25
6 5 5 6 6 7 7 5 4 3 3 4 5 6 6 8 11 12 12 12 13 14 14 15 16 17 18 19 21 24 26 27 29 27 25 30 32 32 33 33 35 36 32 30 29 26 27
5 5 3 2 2 3 4 4 3 3 3 3 4 6 7 8 9 10 11 12 13 15 14 14 16 17 19 21 23 24 26 28 30 30 28 32 33 35 34 35 36 37 35 31 29 29 28
6 5 4 3 3 3 2 0 1 1 1 1 2 4 5 6 8 10 11 12 14 14 15 14 17 18 19 21 23 25 27 30 32 31 30 33 34 36 35 35 37 38 36 34 29 30 29
10 9 8 7 6 6 6 7 5 4 4 5 5 5 6 7 9 11 13 15 16 17 17 17 18 19 20 23 24 27 29 30 30 30 31 34 36 36 36 36 38 40 39 36 30 30 28
15 14 12 10 9 8 8 10 11 11 10 10 9 8 9 10 11 13 15 17 18 21 20 19 19 21 22 24 26 28 30 31 30 31 34 35 35 36 37 38 39 39 40 38 33 28 25
17 16 15 14 12 11 10 10 12 13 13 15 14 14 13 14 15 16 17 18 20 21 22 22 22 22 24 25 27 29 30 30 30 33 36 33 35 38 38 40 41 41 39 37 36 32 27
20 18 17 16 15 14 14 14 13 14 14 15 18 20 19 18 18 19 20 21 22 23 23 24 23 24 25 28 30 31 29 29 31 35 34 33 35 40 41 41 41 41 40 39 37 34 29
22 22 21 19 18 18 17 16 16 16 17 17 18 20 22 23 22 22 23 24 24 25 24 25 25 26 28 30 32 31 28 30 36 37 35 37 40 43 44 43 43 42 41 38 39 35 32
27 26 25 23 21 20 20 20 19 20 20 20 20 20 22 23 24 25 26 27 27 26 26 26 26 27 28 31 30 28 28 33 34 34 38 43 42 43 43 44 42 43 41 40 38 36 33
30 29 26 26 26 24 22 23 23 22 23 22 23 23 23 23 23 25 27 28 28 28 28 28 28 30 32 32 30 30 34 35 36 38 41 44 43 42 44 44 43 40 40 39 36 36 35
33 31 29 28 29 28 27 26 26 26 26 26 25 26 25 25 25 26 27 29 30 30 30 30 32 34 34 31 30 33 35 35 36 39 43 45 44 44 44 45 43 39 37 35 34 36 34
33 34 33 32 32 32 32 31 30 30 29 29 29 28 29 29 27 28 30 31 32 33 33 34 35 36 33 32 33 35 35 36 40 44 46 46 48 48 45 46 45 39 36 35 37 39 38
37 38 37 37 37 37 37 36 34 34 33 32 32 31 31 33 32 32 33 33 34 35 36 37 38 35 33 34 37 36 37 38 42 43 45 46 47 52 48 51 49 37 34 36 39 37 37
40 40 41 42 41 42 41 41 40 38 37 36 35 35 35 36 37 37 36 36 37 37 39 38 35 35 36 38 37 37 39 41 42 43 43 46 46 46 46 45 47 38 36 35 37 37 41
42 41 43 45 47 45 45 45 44 43 42 41 40 39 39 39 40 40 39 39 39 38 36 35 35 38 41 39 39 39 41 42 43 44 47 49 49 48 47 44 48 43 36 35 40 36 42
47 47 45 49 49 48 47 47 47 46 44 44 43 43 44 44 42 43 42 41 41 39 38 38 40 42 43 42 46 45 46 47 47 48 48 51 52 50 48 44 47 41 37 40 41 41 43
41 38 41 46 49 48 48 48 49 49 47 47 47 48 47 46 45 45 43 42 41 41 42 42 44 44 44 46 48 48 47 47 50 50 53 53 50 51 50 44 46 40 38 39 41 46 48
49 51 41 46 49 53 54 53 53 53 54 51 50 51 52 49 48 44 44 43 43 44 45 46 47 47 48 49 51 53 52 52 52 53 54 51 50 49 49 43 43 41 39 41 45 48 51
54 51 55 47 41 46 50 46 48 52 52 52 51 52 53 55 52 46 46 46 49 50 48 51 50 51 52 54 55 55 55 56 55 54 54 53 51 49 50 45 43 38 42 45 48 49 52
52 53 51 53 48 47 52 52 50 52 54 53 55 54 55 56 55 51 51 51 53 53 54 55 54 55 56 58 60 62 60 60 59 58 56 52 47 46 48 46 46 46 45 47 51 50 51
58 54 55 55 55 53 59 60 55 58 62 62 59 60 59 60 58 57 57 60 60 58 60 60 60 62 62 62 65 65 62 61 60 56 51 49 46 48 48 52 48 48 48 51 53 55 54
59 58 56 57 57 58 58 58 59 61 64 64 62 65 66 65 62 62 58 64 66 62 62 62 63 65 64 68 68 68 66 63 59 53 49 48 51 52 52 53 52 51 53 55 55 57 59
57 59 61 61 63 61 62 63 61 64 60 62 64 66 68 70 67 67 65 61 63 67 65 55 58 59 69 68 69 64 66 63 59 56 50 51 51 54 54 54 57 55 57 57 58 59 62
Wind_Direction
92 90 91 94 92 97 98 98 96 97 90 88 86 76 75 70 64 63 65 60 57 56 58 56 53 50 46 41 33 24 22 23 21 20 16 8 4 1 357 354 352 352 349 344 343 339 333
92 89 89 90 88 92 97 99 99 99 100 90 85 79 76 66 60 61 63 58 58 56 57 57 56 51 44 37 31 30 30 26 22 20 16 11 5 0 357 353 353 353 351 350 346 341 336
95 92 91 90 90 87 91 100 102 98 94 87 83 81 71 59 56 55 58 59 58 57 57 58 54 50 44 39 34 31 30 26 20 17 14 11 4 1 358 358 356 360 358 348 343 342 342
97 94 95 96 95 96 96 97 97 91 88 85 81 75 63 55 49 51 53 57 58 54 53 52 45 42 38 32 29 27 23 19 16 13 11 8 3 0 2 358 358 354 353 356 347 346 345
104 101 99 98 98 101 98 97 99 98 89 75 69 66 58 50 47 52 52 50 50 49 45 40 35 33 29 23 21 19 15 13 9 9 6 6 2 2 359 359 357 354 355 354 349 345 345
117 109 98 91 88 88 99 102 103 101 86 60 57 57 52 47 43 44 43 40 37 34 32 27 23 20 17 15 11 9 10 6 6 3 2 360 1 360 1 -0 358 356 354 349 347 345 344
139 134 125 107 88 78 79 87 97 96 80 65 54 58 43 36 37 38 33 25 20 14 12 12 14 9 6 6 3 4 2 1 0 359 355 356 358 356 359 360 357 356 352 350 347 347 345
163 159 167 179 133 97 79 72 72 75 59 39 41 37 30 23 20 18 16 14 8 2 1 360 0 359 356 357 356 355 356 356 355 354 354 353 354 355 357 357 355 351 351 350 344 344 343
210 211 211 224 245 248 247 29 68 57 12 338 359 3 1 2 0 356 354 358 356 352 352 350 351 350 351 351 349 348 351 352 352 352 351 350 352 353 354 354 350 347 347 347 346 341 339
230 233 239 243 256 264 263 258 258 272 281 284 296 312 322 331 332 342 341 341 342 340 341 342 343 343 343 342 343 345 346 348 348 349 348 347 349 351 351 349 347 344 343 343 343 340 338
236 240 244 250 258 261 268 272 267 260 265 276 284 292 300 308 313 321 329 332 332 329 332 331 332 335 335 337 341 340 341 343 346 346 343 343 344 347 347 344 343 342 339 339 334 337 337
237 241 247 251 254 260 266 268 270 269 268 269 273 277 283 292 301 307 315 320 322 323 325 324 327 329 330 332 334 336 337 339 342 342 339 339 339 342 343 341 340 340 335 333 333 331 334
243 247 251 255 256 256 262 268 272 275 277 279 278 274 276 281 290 298 306 312 315 318 321 320 321 322 324 328 330 332 334 335 336 334 335 338 337 337 340 339 337 335 334 330 328 328 333
252 251 252 255 257 256 256 260 265 270 275 277 280 283 281 281 286 292 297 301 306 311 313 314 315 319 322 325 325 327 330 332 332 334 334 336 338 337 337 336 336 334 330 326 323 323 322
257 258 260 260 262 262 260 263 267 271 273 277 279 282 284 283 284 288 291 296 302 304 307 308 310 313 314 316 320 324 327 328 330 334 333 333 337 337 338 336 334 333 328 322 321 317 318
257 259 263 266 267 269 266 266 268 271 273 275 278 279 280 280 282 285 289 292 295 298 301 302 304 308 313 316 319 324 327 328 328 332 334 335 337 338 339 336 333 330 325 318 318 315 315
256 257 261 265 266 265 267 267 269 271 274 275 276 277 276 278 282 284 287 290 292 293 295 299 304 308 310 312 317 320 321 321 325 331 334 335 337 337 338 335 333 333 324 317 315 312 310
253 256 259 262 265 263 264 269 270 272 276 279 278 278 279 279 280 283 286 289 292 293 297 301 303 304 305 308 312 314 316 320 323 329 331 332 334 333 337 332 333 335 325 319 318 319 314
246 249 254 259 262 262 263 267 269 270 273 277 277 277 278 279 279 281 283 286 288 291 294 297 299 299 302 306 308 311 315 320 323 327 331 331 333 331 333 331 332 333 327 319 315 313 315
250 253 255 255 257 260 262 264 268 269 271 272 273 274 275 276 278 281 282 284 287 290 293 294 294 295 300 303 304 309 314 317 321 324 328 327 329 326 328 325 324 330 324 311 309 312 306
254 256 256 260 259 259 261 264 264 265 266 268 270 271 272 273 274 278 280 283 284 286 287 288 289 292 296 299 299 306 309 314 318 323 325 325 328 324 322 318 318 322 321 309 310 309 304
258 261 263 257 257 260 261 263 264 267 268 268 269 271 273 274 274 277 280 281 281 281 282 285 288 291 296 300 301 306 309 314 318 321 322 323 324 321 322 314 314 321 316 315 313 310 308
260 267 260 259 255 260 261 260 262 263 265 269 270 271 272 273 274 275 276 276 278 281 284 287 290 293 297 297 299 302 306 309 314 318 318 321 319 318 321 314 314 322 322 322 320 314 312
262 263 259 268 253 256 259 263 260 265 267 266 268 270 271 271 273 274 274 275 279 283 287 290 290 291 293 296 298 301 303 308 311 313 316 316 313 313 313 313 316 321 325 322 320 317 312
260 265 269 269 273 269 254 257 262 263 264 264 266 269 271 273 271 272 273 275 278 282 286 284 289 291 293 294 296 298 303 305 306 308 314 314 312 310 309 309 312 319 322 320 318 320 315
253 256 257 261 267 270 255 258 267 263 266 264 264 264 268 270 271 269 269 274 279 279 282 286 288 289 292 295 297 298 301 303 307 308 310 307 304 305 306 306 311 316 316 314 313 317 313
257 256 256 255 252 258 257 254 258 261 265 261 260 265 266 268 269 269 274 276 278 279 282 284 285 286 289 292 293 296 298 298 302 306 306 301 297 301 303 302 309 312 309 310 311 310 309
252 254 256 254 255 251 253 257 259 261 262 260 261 264 266 268 268 267 274 280 278 280 279 282 286 289 291 297 297 298 296 299 301 303 304 297 294 298 298 301 305 306 305 304 304 307 306
253 253 255 255 255 259 261 260 258 257 262 265 266 267 268 269 269 270 273 272 279 279 282 287 289 288 296 298 301 294 298 297 299 301 297 294 293 294 296 299 300 301 301 301 302 305 305